CW7408 Weather Reports


Display with metric or nautical units.
time (UTC)temp
F
wind
direction
speed
MPH
gust
MPH
rain 1hr
in
rain 24hr
in
rain mn
in
humidity
%
barometer
mb
20210515115822 54 5 0.0 0.0 0.00 0.00 0.00 25 1015.4
20210515115328 54 5 0.0 1.0 0.00 0.00 0.00 27 1015.4
20210515114818 54 5 0.0 1.0 0.00 0.00 0.00 28 1015.4
20210515114324 53 5 0.0 0.0 0.00 0.00 0.00 29 1015.4
20210515113828 52 5 0.0 1.0 0.00 0.00 0.00 29 1015.4
20210515113334 52 5 0.0 0.0 0.00 0.00 0.00 32 1015.4
20210515112821 52 5 0.0 0.0 0.00 0.00 0.00 32 1015.5
20210515112326 53 5 0.0 0.0 0.00 0.00 0.00 32 1015.5
20210515111832 53 5 0.0 0.0 0.00 0.00 0.00 32 1015.5
20210515111318 54 5 0.0 0.0 0.00 0.00 0.00 31 1015.5
20210515110824 54 5 0.0 0.0 0.00 0.00 0.00 30 1015.6
20210515110330 54 5 0.0 0.0 0.00 0.00 0.00 30 1015.7
20210515105821 54 5 0.0 0.0 0.00 0.00 0.00 30 1015.6
20210515105326 54 5 0.0 0.0 0.00 0.00 0.00 31 1015.7
20210515104832 54 5 0.0 0.0 0.00 0.00 0.00 31 1015.7
20210515104318 54 5 0.0 0.0 0.00 0.00 0.00 30 1015.8
20210515103824 53 5 0.0 0.0 0.00 0.00 0.00 29 1015.7
20210515103328 53 5 0.0 0.0 0.00 0.00 0.00 29 1015.7
20210515102833 52 5 0.0 0.0 0.00 0.00 0.00 28 1015.8
20210515102317 52 5 0.0 0.0 0.00 0.00 0.00 28 1015.8
20210515101820 52 5 0.0 0.0 0.00 0.00 0.00 29 1015.9
20210515101326 51 5 0.0 3.0 0.00 0.00 0.00 26 1015.8
20210515100831 50 5 0.0 3.0 0.00 0.00 0.00 29 1015.9
20210515100321 50 5 0.0 0.0 0.00 0.00 0.00 31 1015.9
20210515095828 50 5 0.0 0.0 0.00 0.00 0.00 31 1016.0
20210515095333 50 5 0.0 0.0 0.00 0.00 0.00 31 1016.0
20210515094820 50 5 0.0 4.0 0.00 0.00 0.00 31 1016.1
20210515094327 50 5 1.0 4.0 0.00 0.00 0.00 30 1016.1
20210515093834 51 5 0.0 0.0 0.00 0.00 0.00 29 1016.2
20210515093319 51 5 0.0 0.0 0.00 0.00 0.00 28 1016.3
20210515092825 51 5 0.0 4.0 0.00 0.00 0.00 29 1016.3
20210515092330 51 5 1.0 4.0 0.00 0.00 0.00 28 1016.4
20210515091819 51 5 0.0 0.0 0.00 0.00 0.00 27 1016.3
20210515091325 51 5 0.0 0.0 0.00 0.00 0.00 26 1016.4
20210515090832 51 5 0.0 0.0 0.00 0.00 0.00 26 1016.4
20210515090317 51 5 0.0 0.0 0.00 0.00 0.00 24 1016.5
20210515085820 51 5 0.0 0.0 0.00 0.00 0.00 23 1016.6
20210515085326 52 5 0.0 0.0 0.00 0.00 0.00 22 1016.5
20210515084831 51 5 0.0 0.0 0.00 0.00 0.00 25 1016.7
20210515084335 51 5 0.0 0.0 0.00 0.00 0.00 23 1016.9
20210515083822 50 5 0.0 0.0 0.00 0.00 0.00 22 1016.9
20210515083327 50 5 0.0 0.0 0.00 0.00 0.00 25 1016.9
20210515082817 49 5 0.0 0.0 0.00 0.00 0.00 21 1017.0
20210515082323 49 5 0.0 2.0 0.00 0.00 0.00 22 1017.1
20210515081828 48 5 0.0 4.0 0.00 0.00 0.00 23 1017.3
20210515081334 47 5 1.0 4.0 0.00 0.00 0.00 22 1017.3
20210515080819 47 5 0.0 0.0 0.00 0.00 0.00 21 1017.4
20210515080325 47 5 0.0 0.0 0.00 0.00 0.00 21 1017.5
20210515075830 46 5 0.0 4.0 0.00 0.00 0.00 20 1017.5
20210515075331 46 5 1.0 4.0 0.00 0.00 0.00 21 1017.5
20210515074818 45 5 0.0 0.0 0.00 0.00 0.00 22 1017.6
20210515074324 45 5 0.0 0.0 0.00 0.00 0.00 22 1017.7
20210515073830 45 5 0.0 0.0 0.00 0.00 0.00 21 1017.5
20210515073319 46 5 0.0 0.0 0.00 0.00 0.00 20 1017.7
20210515072825 46 5 0.0 0.0 0.00 0.00 0.00 20 1017.7
20210515072330 46 5 0.0 0.0 0.00 0.00 0.00 20 1017.6
20210515071835 46 5 0.0 0.0 0.00 0.00 0.00 20 1017.7
20210515071320 46 5 0.0 0.0 0.00 0.00 0.00 20 1017.7
20210515070825 46 5 0.0 0.0 0.00 0.00 0.00 19 1017.6
20210515070331 46 5 0.0 0.0 0.00 0.00 0.00 19 1017.7
20210515065819 46 5 0.0 0.0 0.00 0.00 0.00 20 1017.7
20210515065323 46 5 0.0 0.0 0.00 0.00 0.00 19 1017.7
20210515064830 46 5 0.0 0.0 0.00 0.00 0.00 20 1017.7
20210515064320 46 5 0.0 0.0 0.00 0.00 0.00 19 1017.7
20210515063826 47 5 0.0 0.0 0.00 0.00 0.00 19 1017.7
20210515063332 47 5 0.0 0.0 0.00 0.00 0.00 19 1017.7
20210515062818 47 5 0.0 0.0 0.00 0.00 0.00 19 1017.7
20210515062325 47 5 0.0 0.0 0.00 0.00 0.00 19 1017.9
20210515061831 47 5 0.0 0.0 0.00 0.00 0.00 20 1018.0
20210515061336 47 5 0.0 0.0 0.00 0.00 0.00 20 1018.0
20210515060822 48 5 0.0 0.0 0.00 0.00 0.00 19 1018.0
20210515060329 48 5 0.0 0.0 0.00 0.00 0.00 18 1018.0
20210515055819 48 5 0.0 0.0 0.00 0.00 0.00 18 1018.0
20210515055325 48 5 0.0 0.0 0.00 0.00 0.00 19 1018.1
20210515054831 48 5 0.0 0.0 0.00 0.00 0.00 18 1018.1
20210515054336 48 5 0.0 0.0 0.00 0.00 0.00 19 1018.2
20210515053822 48 5 0.0 0.0 0.00 0.00 0.00 19 1018.1
20210515053329 48 5 0.0 0.0 0.00 0.00 0.00 19 1018.2
20210515052834 48 5 0.0 0.0 0.00 0.00 0.00 19 1018.3
20210515052320 48 5 0.0 0.0 0.00 0.00 0.00 18 1018.3
20210515051827 48 5 0.0 0.0 0.00 0.00 0.00 19 1018.3
20210515051333 49 5 0.0 0.0 0.00 0.00 0.00 20 1018.2
20210515050822 49 5 0.0 0.0 0.00 0.00 0.00 20 1018.3
20210515050327 49 5 0.0 0.0 0.00 0.00 0.00 20 1018.3
20210515045833 49 5 0.0 0.0 0.00 0.00 0.00 20 1018.3
20210515045319 49 5 0.0 0.0 0.00 0.00 0.00 19 1018.3
20210515044825 49 5 0.0 0.0 0.00 0.00 0.00 20 1018.4
20210515044331 50 5 0.0 0.0 0.00 0.00 0.00 20 1018.4
20210515043836 50 5 0.0 0.0 0.00 0.00 0.00 21 1018.4
20210515043322 50 5 0.0 0.0 0.00 0.00 0.00 20 1018.4
20210515042827 50 5 0.0 0.0 0.00 0.00 0.00 20 1018.3
20210515042330 50 5 0.0 0.0 0.00 0.00 0.00 20 1018.3
20210515041819 51 5 0.0 0.0 0.00 0.00 0.00 19 1018.2
20210515041324 51 5 0.0 0.0 0.00 0.00 0.00 20 1018.2
20210515040827 51 5 0.0 0.0 0.00 0.00 0.00 20 1018.2
20210515040330 51 5 0.0 0.0 0.00 0.00 0.00 21 1018.3
20210515035833 52 5 0.0 0.0 0.00 0.00 0.00 22 1018.2
20210515035319 52 5 0.0 0.0 0.00 0.00 0.00 21 1018.3
20210515034825 52 5 0.0 0.0 0.00 0.00 0.00 22 1018.1
20210515034331 52 5 0.0 0.0 0.00 0.00 0.00 23 1018.2
20210515033836 53 5 0.0 0.0 0.00 0.00 0.00 23 1018.2
20210515033321 53 5 0.0 0.0 0.00 0.00 0.00 23 1018.1
20210515032827 54 5 0.0 0.0 0.00 0.00 0.00 24 1018.2
20210515032317 54 5 0.0 0.0 0.00 0.00 0.00 25 1018.2
20210515031823 54 5 0.0 0.0 0.00 0.00 0.00 24 1018.1
20210515031328 55 5 0.0 0.0 0.00 0.00 0.00 25 1018.1
20210515030833 55 5 0.0 0.0 0.00 0.00 0.00 27 1018.1
20210515030318 56 5 0.0 0.0 0.00 0.00 0.00 28 1018.1
20210515025822 56 5 0.0 0.0 0.00 0.00 0.00 28 1018.0
20210515025326 57 5 0.0 0.0 0.00 0.00 0.00 30 1018.1
20210515024830 57 5 0.0 0.0 0.00 0.00 0.00 30 1018.0
20210515024335 58 5 0.0 0.0 0.00 0.00 0.00 29 1018.1
20210515023820 58 5 0.0 0.0 0.00 0.00 0.00 26 1018.1
20210515023330 59 5 0.0 0.0 0.00 0.00 0.00 26 1018.1
20210515022835 60 5 0.0 0.0 0.00 0.00 0.00 26 1018.3
20210515022319 60 5 0.0 0.0 0.00 0.00 0.00 25 1018.2
20210515021825 61 5 0.0 0.0 0.00 0.00 0.00 23 1018.2
20210515021329 62 5 0.0 0.0 0.00 0.00 0.00 26 1018.1
20210515020835 62 5 0.0 0.0 0.00 0.00 0.00 27 1018.1
20210515020321 63 5 0.0 0.0 0.00 0.00 0.00 26 1018.2
20210515015828 64 5 0.0 0.0 0.00 0.00 0.00 27 1018.1
20210515015334 65 5 0.0 0.0 0.00 0.00 0.00 31 1018.1
20210515014820 65 5 0.0 0.0 0.00 0.00 0.00 40 1018.2
20210515014332 65 5 0.0 0.0 0.00 0.00 0.00 38 1018.2
20210515013818 65 5 0.0 0.0 0.00 0.00 0.00 35 1018.1
20210515013323 66 5 0.0 0.0 0.00 0.00 0.00 34 1018.1
20210515012828 66 5 0.0 0.0 0.00 0.00 0.00 33 1018.2
20210515012333 66 5 0.0 0.0 0.00 0.00 0.00 31 1018.2
20210515011817 67 5 0.0 0.0 0.00 0.00 0.00 26 1018.2
20210515011324 67 5 0.0 0.0 0.00 0.00 0.00 25 1018.3
20210515010830 67 5 0.0 0.0 0.00 0.00 0.00 25 1018.3
20210515010317 67 5 0.0 0.0 0.00 0.00 0.00 25 1018.3
20210515005823 67 5 0.0 0.0 0.00 0.00 0.00 25 1018.4
20210515005335 67 5 0.0 2.0 0.00 0.00 0.00 25 1018.4
20210515004821 67 5 0.0 3.0 0.00 0.00 0.00 22 1018.4
20210515004327 68 5 1.0 3.0 0.00 0.00 0.00 18 1018.3
20210515003832 68 5 0.0 0.0 0.00 0.00 0.00 22 1018.4
20210515003317 69 5 0.0 1.0 0.00 0.00 0.00 24 1018.3
20210515002824 69 5 0.0 2.0 0.00 0.00 0.00 21 1018.3
20210515002330 69 5 0.0 2.0 0.00 0.00 0.00 17 1018.5
20210515001835 70 5 0.0 1.0 0.00 0.00 0.00 17 1018.5
20210515001321 70 5 0.0 1.0 0.00 0.00 0.00 20 1018.5
20210515000827 71 5 0.0 0.0 0.00 0.00 0.00 24 1018.5
20210515000318 72 5 0.0 0.0 0.00 0.00 0.00 20 1018.6
20210514235825 72 5 0.0 5.0 0.00 0.00 0.00 24 1018.6
20210514235331 73 5 1.0 5.0 0.00 0.00 0.00 24 1018.7
20210514234816 73 5 0.0 0.0 0.00 0.00 0.00 24 1018.8
20210514234322 73 5 0.0 1.0 0.00 0.00 0.00 23 1018.9
20210514233827 73 5 0.0 3.0 0.00 0.00 0.00 21 1018.9
20210514233333 74 5 0.0 3.0 0.00 0.00 0.00 22 1018.9
20210514232818 74 5 0.0 1.0 0.00 0.00 0.00 22 1018.9
20210514232324 74 5 0.0 0.0 0.00 0.00 0.00 23 1018.9
20210514231830 74 5 0.0 4.0 0.00 0.00 0.00 22 1019.0
20210514231320 74 5 0.0 4.0 0.00 0.00 0.00 23 1019.1
20210514230825 74 5 0.0 0.0 0.00 0.00 0.00 23 1019.1
20210514230331 74 5 0.0 0.0 0.00 0.00 0.00 22 1019.2
20210514225817 73 5 0.0 0.0 0.00 0.00 0.00 23 1019.1
20210514225323 72 5 0.0 1.0 0.00 0.00 0.00 22 1019.1
20210514224827 72 5 0.0 6.0 0.00 0.00 0.00 23 1019.2
20210514224332 72 5 1.0 6.0 0.00 0.00 0.00 22 1019.3
20210514223818 74 5 0.0 2.0 0.00 0.00 0.00 19 1019.4
20210514223324 74 5 0.0 1.0 0.00 0.00 0.00 20 1019.4
20210514222816 74 5 0.0 1.0 0.00 0.00 0.00 20 1019.5
20210514222323 74 5 0.0 1.0 0.00 0.00 0.00 22 1019.6
20210514221829 73 5 0.0 1.0 0.00 0.00 0.00 19 1019.6
20210514221334 73 5 0.0 1.0 0.00 0.00 0.00 20 1019.6
20210514220821 73 5 0.0 3.0 0.00 0.00 0.00 19 1019.7
20210514220327 73 5 1.0 5.0 0.00 0.00 0.00 18 1019.7
20210514215832 74 5 1.0 5.0 0.00 0.00 0.00 18 1019.8
20210514215318 75 5 0.0 0.0 0.00 0.00 0.00 20 1019.9
20210514214823 75 5 0.0 0.0 0.00 0.00 0.00 21 1019.8
20210514214330 75 5 0.0 1.0 0.00 0.00 0.00 22 1019.8
20210514213819 76 5 0.0 0.0 0.00 0.00 0.00 23 1019.9
20210514213326 75 5 0.0 1.0 0.00 0.00 0.00 23 1019.9
20210514212832 75 5 0.0 4.0 0.00 0.00 0.00 24 1019.9
20210514212317 75 5 0.0 4.0 0.00 0.00 0.00 23 1019.9
20210514211823 75 5 0.0 1.0 0.00 0.00 0.00 25 1019.9
20210514211330 76 5 0.0 1.0 0.00 0.00 0.00 24 1019.9
20210514210836 76 5 0.0 1.0 0.00 0.00 0.00 24 1019.9
20210514210319 77 5 0.0 1.0 0.00 0.00 0.00 22 1019.8
20210514205826 77 5 0.0 1.0 0.00 0.00 0.00 22 1019.9
20210514205332 78 5 0.0 1.0 0.00 0.00 0.00 20 1019.8
20210514204820 78 5 0.0 0.0 0.00 0.00 0.00 17 1019.8
20210514204325 78 5 0.0 0.0 0.00 0.00 0.00 17 1019.9
20210514203830 78 5 0.0 1.0 0.00 0.00 0.00 15 1019.8
20210514203317 78 5 0.0 1.0 0.00 0.00 0.00 17 1019.8
20210514202822 77 5 0.0 0.0 0.00 0.00 0.00 19 1019.9
20210514202328 76 5 0.0 2.0 0.00 0.00 0.00 20 1019.8
20210514201834 77 5 0.0 2.0 0.00 0.00 0.00 19 1020.0
20210514201320 77 5 0.0 2.0 0.00 0.00 0.00 20 1020.0
20210514200824 77 5 0.0 2.0 0.00 0.00 0.00 20 1020.0
20210514200329 77 5 0.0 6.0 0.00 0.00 0.00 20 1020.2
20210514195818 77 5 0.0 6.0 0.00 0.00 0.00 19 1020.0
20210514195324 78 5 0.0 0.0 0.00 0.00 0.00 18 1020.0
20210514194830 77 5 0.0 0.0 0.00 0.00 0.00 19 1019.9
20210514194317 77 5 0.0 0.0 0.00 0.00 0.00 17 1020.0
20210514193824 77 5 0.0 1.0 0.00 0.00 0.00 16 1020.0
20210514193330 77 5 0.0 1.0 0.00 0.00 0.00 16 1020.1
20210514192836 77 5 0.0 0.0 0.00 0.00 0.00 15 1020.2
20210514192324 77 5 0.0 0.0 0.00 0.00 0.00 17 1020.2
20210514191828 77 5 0.0 0.0 0.00 0.00 0.00 16 1020.2
20210514191334 77 5 0.0 1.0 0.00 0.00 0.00 15 1020.1
20210514190824 77 5 0.0 1.0 0.00 0.00 0.00 14 1020.1
20210514190329 77 5 0.0 0.0 0.00 0.00 0.00 16 1020.1
20210514185835 76 5 0.0 0.0 0.00 0.00 0.00 16 1020.1
20210514185321 76 5 0.0 0.0 0.00 0.00 0.00 16 1020.2
20210514184825 77 5 0.0 0.0 0.00 0.00 0.00 16 1020.1
20210514184330 76 5 0.0 0.0 0.00 0.00 0.00 15 1020.1
20210514183817 75 5 0.0 0.0 0.00 0.00 0.00 16 1020.1
20210514183323 75 5 0.0 1.0 0.00 0.00 0.00 16 1020.1
20210514182829 75 5 0.0 1.0 0.00 0.00 0.00 15 1020.0
20210514182335 74 5 0.0 0.0 0.00 0.00 0.00 17 1020.0
20210514181824 73 5 0.0 0.0 0.00 0.00 0.00 17 1020.0
20210514181331 73 5 0.0 0.0 0.00 0.00 0.00 17 1019.9
20210514180817 72 5 0.0 0.0 0.00 0.00 0.00 16 1020.0
20210514180322 72 5 0.0 0.0 0.00 0.00 0.00 17 1020.0
20210514175828 72 5 0.0 0.0 0.00 0.00 0.00 17 1020.1
20210514175334 72 5 0.0 0.0 0.00 0.00 0.00 16 1020.1
20210514174820 72 5 0.0 0.0 0.00 0.00 0.00 16 1020.1
20210514174326 72 5 0.0 0.0 0.00 0.00 0.00 17 1020.2
20210514173832 71 5 0.0 0.0 0.00 0.00 0.00 17 1020.1
20210514173317 70 5 0.0 0.0 0.00 0.00 0.00 18 1020.0
20210514172828 70 5 0.0 0.0 0.00 0.00 0.00 20 1020.0
20210514172334 69 5 0.0 0.0 0.00 0.00 0.00 21 1019.9
20210514171820 68 5 0.0 0.0 0.00 0.00 0.00 22 1020.0
20210514171326 68 5 0.0 0.0 0.00 0.00 0.00 22 1019.9
20210514170833 67 5 0.0 0.0 0.00 0.00 0.00 22 1019.9
20210514170318 67 5 0.0 0.0 0.00 0.00 0.00 23 1020.0
20210514165824 67 5 0.0 0.0 0.00 0.00 0.00 22 1020.0
20210514165329 67 5 0.0 1.0 0.00 0.00 0.00 21 1020.0
20210514164835 67 5 0.0 1.0 0.00 0.00 0.00 20 1020.0
20210514164321 67 5 0.0 0.0 0.00 0.00 0.00 19 1020.0
20210514163831 67 5 0.0 0.0 0.00 0.00 0.00 16 1019.9
20210514163316 67 5 0.0 0.0 0.00 0.00 0.00 15 1019.9
20210514162822 66 5 0.0 0.0 0.00 0.00 0.00 15 1019.9
20210514162327 65 5 0.0 0.0 0.00 0.00 0.00 15 1019.9
20210514161834 64 5 0.0 0.0 0.00 0.00 0.00 17 1019.9
20210514161318 63 5 0.0 0.0 0.00 0.00 0.00 17 1020.0
20210514160825 62 5 0.0 0.0 0.00 0.00 0.00 23 1020.0
20210514160330 61 5 0.0 0.0 0.00 0.00 0.00 24 1019.9
20210514155835 60 5 0.0 0.0 0.00 0.00 0.00 23 1019.9
20210514155322 59 5 0.0 0.0 0.00 0.00 0.00 25 1020.0
20210514154832 58 5 0.0 0.0 0.00 0.00 0.00 26 1020.0
20210514154317 58 5 0.0 0.0 0.00 0.00 0.00 28 1020.0
20210514153821 57 5 0.0 0.0 0.00 0.00 0.00 29 1019.9
20210514153327 56 5 0.0 0.0 0.00 0.00 0.00 28 1019.9
20210514152831 55 5 0.0 0.0 0.00 0.00 0.00 29 1019.9
20210514152317 54 5 0.0 0.0 0.00 0.00 0.00 30 1020.0
20210514151823 54 5 0.0 0.0 0.00 0.00 0.00 31 1020.0
20210514151329 53 5 0.0 0.0 0.00 0.00 0.00 32 1020.0
20210514150835 52 5 0.0 0.0 0.00 0.00 0.00 33 1020.0
20210514150321 52 5 0.0 0.0 0.00 0.00 0.00 33 1020.0
20210514145831 51 5 0.0 0.0 0.00 0.00 0.00 34 1020.0
20210514145336 49 5 0.0 0.0 0.00 0.00 0.00 35 1019.9
20210514144823 48 5 0.0 0.0 0.00 0.00 0.00 36 1020.0
20210514144328 48 5 0.0 0.0 0.00 0.00 0.00 37 1019.9
20210514143833 48 5 0.0 0.0 0.00 0.00 0.00 38 1019.9
20210514143317 48 5 0.0 0.0 0.00 0.00 0.00 38 1019.9
20210514142823 48 5 0.0 0.0 0.00 0.00 0.00 37 1019.9
20210514142328 48 5 0.0 0.0 0.00 0.00 0.00 36 1019.9
20210514141832 48 5 0.0 0.0 0.00 0.00 0.00 36 1019.8
20210514141317 48 5 0.0 0.0 0.00 0.00 0.00 36 1019.8
20210514140828 48 5 0.0 0.0 0.00 0.00 0.00 36 1019.9
20210514140333 48 5 0.0 0.0 0.00 0.00 0.00 35 1019.9
20210514135820 48 5 0.0 0.0 0.00 0.00 0.00 33 1019.8
20210514135327 48 5 0.0 0.0 0.00 0.00 0.00 32 1019.8
20210514134833 48 5 0.0 0.0 0.00 0.00 0.00 31 1019.7
20210514134319 48 5 0.0 0.0 0.00 0.00 0.00 29 1019.6
20210514133825 48 5 0.0 0.0 0.00 0.00 0.00 28 1019.5
20210514133331 48 5 0.0 0.0 0.00 0.00 0.00 28 1019.5
20210514132817 48 5 0.0 0.0 0.00 0.00 0.00 28 1019.6
20210514132323 48 5 0.0 0.0 0.00 0.00 0.00 28 1019.5
20210514131831 48 5 0.0 0.0 0.00 0.00 0.00 27 1019.5
20210514131336 48 5 0.0 0.0 0.00 0.00 0.00 27 1019.5
20210514130820 48 5 0.0 0.0 0.00 0.00 0.00 27 1019.5
20210514130326 48 5 0.0 0.0 0.00 0.00 0.00 26 1019.3
20210514125831 48 5 0.0 0.0 0.00 0.00 0.00 26 1019.3
20210514125317 48 5 0.0 0.0 0.00 0.00 0.00 26 1019.3
20210514124822 48 5 0.0 0.0 0.00 0.00 0.00 25 1019.3
20210514124327 48 5 0.0 0.0 0.00 0.00 0.00 25 1019.4
20210514123833 48 5 0.0 0.0 0.00 0.00 0.00 25 1019.3
20210514123316 48 5 0.0 0.0 0.00 0.00 0.00 26 1019.3
20210514122826 48 5 0.0 0.0 0.00 0.00 0.00 25 1019.3
20210514122331 48 5 0.0 0.0 0.00 0.00 0.00 26 1019.3
20210514121817 48 5 0.0 0.0 0.00 0.00 0.00 26 1019.4
20210514121321 48 5 0.0 0.0 0.00 0.00 0.00 25 1019.4
20210514120826 48 5 0.0 0.0 0.00 0.00 0.00 25 1019.4
20210514120332 48 5 0.0 0.0 0.00 0.00 0.00 26 1019.4